| time (UTC) | temp F | wind direction | speed MPH | gust MPH | rain 1hr in | rain 24hr in | rain mn in | humidity % | barometer mb |
| 20260510192100 | 60 | 312 | 4.0 | 9.0 | 0.00 | 0.00 | 0.00 | 49 | 1017.1 |
| 20260510190600 | 60 | 27 | 5.0 | 12.0 | 0.00 | 0.00 | 0.00 | 48 | 1016.7 |
| 20260510185752 | 60 | 192 | 3.0 | 10.0 | 0.00 | 0.00 | 0.00 | 49 | 1016.7 |
| 20260510183601 | 60 | 12 | 2.0 | 6.0 | 0.00 | 0.00 | 0.00 | 50 | 1016.7 |
| 20260510182101 | 60 | 255 | 5.0 | 11.0 | 0.00 | 0.00 | 0.00 | 48 | 1016.7 |
| 20260510180600 | 60 | 20 | 4.0 | 11.0 | 0.00 | 0.00 | 0.00 | 53 | 1016.6 |
| 20260510175058 | 59 | 20 | 4.0 | 13.0 | 0.00 | 0.00 | 0.00 | 54 | 1016.2 |
| 20260510173551 | 59 | 55 | 3.0 | 11.0 | 0.00 | 0.00 | 0.00 | 57 | 1016.3 |
| 20260510172050 | 59 | 27 | 7.0 | 13.0 | 0.00 | 0.00 | 0.00 | 57 | 1016.5 |
| 20260510170551 | 59 | 324 | 4.0 | 10.0 | 0.00 | 0.00 | 0.00 | 59 | 1016.6 |
| 20260510165051 | 59 | 304 | 5.0 | 9.0 | 0.00 | 0.00 | 0.00 | 59 | 1016.7 |
| 20260510163550 | 58 | 340 | 4.0 | 10.0 | 0.00 | 0.00 | 0.00 | 62 | 1016.7 |
| 20260510162050 | 58 | 344 | 4.0 | 11.0 | 0.00 | 0.00 | 0.00 | 63 | 1016.4 |
| 20260510160551 | 58 | 8 | 4.0 | 11.0 | 0.00 | 0.00 | 0.00 | 66 | 1016.4 |
| 20260510155051 | 57 | 34 | 4.0 | 11.0 | 0.00 | 0.00 | 0.00 | 67 | 1016.2 |
| 20260510153550 | 56 | 53 | 3.0 | 10.0 | 0.00 | 0.00 | 0.00 | 65 | 1016.0 |
| 20260510152051 | 56 | 17 | 4.0 | 9.0 | 0.00 | 0.00 | 0.00 | 65 | 1016.0 |
| 20260510150551 | 55 | 68 | 5.0 | 9.0 | 0.00 | 0.00 | 0.00 | 66 | 1015.7 |
| 20260510145048 | 55 | 134 | 3.0 | 7.0 | 0.00 | 0.00 | 0.00 | 70 | 1015.7 |
| 20260510143548 | 54 | 71 | 5.0 | 10.0 | 0.00 | 0.00 | 0.00 | 70 | 1015.2 |
| 20260510142048 | 53 | 33 | 6.0 | 12.0 | 0.00 | 0.00 | 0.00 | 71 | 1015.0 |
| 20260510141242 | 53 | 20 | 5.0 | 10.0 | 0.00 | 0.00 | 0.00 | 73 | 1014.7 |
| 20260510135048 | 52 | 34 | 6.0 | 12.0 | 0.00 | 0.00 | 0.00 | 76 | 1014.5 |
| 20260510133548 | 50 | 41 | 5.0 | 9.0 | 0.00 | 0.00 | 0.00 | 79 | 1014.5 |
| 20260510132048 | 49 | 47 | 3.0 | 8.0 | 0.00 | 0.00 | 0.00 | 80 | 1014.6 |
| 20260510130548 | 49 | 15 | 3.0 | 6.0 | 0.00 | 0.00 | 0.00 | 81 | 1014.3 |
| 20260510125048 | 49 | 26 | 2.0 | 4.0 | 0.00 | 0.00 | 0.00 | 81 | 1014.3 |
| 20260510123548 | 48 | 27 | 1.0 | 2.0 | 0.00 | 0.00 | 0.00 | 80 | 1014.1 |
| 20260510122742 | 48 | 5 | 0.0 | 1.0 | 0.00 | 0.00 | 0.00 | 81 | 1013.8 |
| 20260510120544 | 48 | 1 | 0.0 | 1.0 | 0.00 | 0.00 | 0.00 | 80 | 1013.8 |
| 20260510115044 | 48 | 68 | 0.0 | 1.0 | 0.00 | 0.00 | 0.00 | 80 | 1013.3 |
| 20260510113544 | 48 | 24 | 0.0 | 1.0 | 0.00 | 0.00 | 0.00 | 80 | 1013.2 |
| 20260510112041 | 48 | 24 | 1.0 | 3.0 | 0.00 | 0.00 | 0.00 | 77 | 1012.9 |
| 20260510111236 | 48 | 64 | 0.0 | 2.0 | 0.00 | 0.00 | 0.00 | 78 | 1012.4 |
| 20260510105734 | 49 | 44 | 0.0 | 3.0 | 0.00 | 0.00 | 0.00 | 77 | 1012.4 |
| 20260510103538 | 49 | 6 | 2.0 | 7.0 | 0.00 | 0.00 | 0.00 | 71 | 1012.3 |
| 20260510102038 | 49 | 49 | 3.0 | 10.0 | 0.00 | 0.00 | 0.00 | 71 | 1012.0 |
| 20260510100539 | 49 | 38 | 4.0 | 8.0 | 0.00 | 0.00 | 0.00 | 73 | 1011.5 |
| 20260510095040 | 49 | 35 | 3.0 | 7.0 | 0.00 | 0.00 | 0.00 | 75 | 1011.1 |
| 20260510093536 | 50 | 50 | 5.0 | 9.0 | 0.00 | 0.00 | 0.00 | 75 | 1010.9 |
| 20260510092036 | 51 | 14 | 3.0 | 6.0 | 0.00 | 0.00 | 0.00 | 78 | 1010.7 |
| 20260510091924 | 51 | 46 | 5.0 | 8.0 | 0.00 | 0.00 | 0.00 | 77 | 1010.7 |
| 20260510085036 | 51 | 54 | 6.0 | 10.0 | 0.00 | 0.00 | 0.00 | 79 | 1010.1 |
| 20260510083533 | 52 | 36 | 4.0 | 12.0 | 0.00 | 0.00 | 0.00 | 82 | 1010.1 |
| 20260510082034 | 53 | 347 | 3.0 | 7.0 | 0.00 | 0.00 | 0.00 | 82 | 1010.1 |
| 20260510080534 | 54 | 348 | 2.0 | 6.0 | 0.00 | 0.02 | 0.00 | 82 | 1009.7 |
| 20260510075034 | 55 | 323 | 2.0 | 7.0 | 0.00 | 0.03 | 0.00 | 81 | 1009.6 |
| 20260510073534 | 56 | 13 | 4.0 | 8.0 | 0.00 | 0.04 | 0.00 | 80 | 1009.6 |
| 20260510072034 | 57 | 338 | 2.0 | 9.0 | 0.00 | 0.05 | 0.00 | 81 | 1009.3 |
| 20260510071232 | 58 | 318 | 3.0 | 6.0 | 0.00 | 0.06 | 0.00 | 80 | 1009.3 |
| 20260510065034 | 59 | 343 | 3.0 | 8.0 | 0.00 | 0.06 | 0.00 | 79 | 1009.1 |
| 20260510063533 | 60 | 219 | 2.0 | 8.0 | 0.00 | 0.06 | 0.00 | 78 | 1009.2 |
| 20260510062035 | 60 | 231 | 3.0 | 8.0 | 0.00 | 0.06 | 0.00 | 78 | 1009.1 |
| 20260510060531 | 59 | 212 | 3.0 | 8.0 | 0.00 | 0.06 | 0.00 | 78 | 1008.9 |
| 20260510055031 | 58 | 292 | 1.0 | 7.0 | 0.00 | 0.06 | 0.00 | 81 | 1008.8 |
| 20260510054946 | 56 | 201 | 0.0 | 1.0 | 0.00 | 0.07 | 0.00 | 82 | 1008.6 |
| 20260510052029 | 56 | 158 | 0.0 | 2.0 | 0.00 | 0.07 | 0.00 | 80 | 1008.6 |
| 20260510050529 | 57 | 167 | 0.0 | 2.0 | 0.00 | 0.07 | 0.00 | 79 | 1008.4 |
| 20260510045029 | 58 | 174 | 0.0 | 2.0 | 0.00 | 0.07 | 0.00 | 77 | 1008.6 |
| 20260510043528 | 59 | 238 | 1.0 | 5.0 | 0.00 | 0.07 | 0.00 | 77 | 1008.5 |
| 20260510042023 | 60 | 313 | 4.0 | 11.0 | 0.00 | 0.07 | 0.00 | 76 | 1008.5 |
| 20260510041220 | 61 | 329 | 1.0 | 7.0 | 0.00 | 0.07 | 0.00 | 75 | 1008.6 |
| 20260510035022 | 60 | 189 | 0.0 | 2.0 | 0.00 | 0.08 | 0.07 | 75 | 1008.0 |
| 20260510033521 | 60 | 188 | 0.0 | 6.0 | 0.00 | 0.08 | 0.07 | 75 | 1007.9 |
| 20260510032709 | 60 | 254 | 0.0 | 3.0 | 0.00 | 0.09 | 0.07 | 74 | 1007.9 |
| 20260510030522 | 60 | 181 | 0.0 | 4.0 | 0.00 | 0.09 | 0.07 | 74 | 1007.9 |
| 20260510025021 | 60 | 134 | 0.0 | 4.0 | 0.00 | 0.10 | 0.07 | 74 | 1007.8 |
| 20260510023522 | 60 | 213 | 0.0 | 6.0 | 0.00 | 0.10 | 0.07 | 74 | 1007.6 |
| 20260510022021 | 59 | 206 | 0.0 | 3.0 | 0.00 | 0.10 | 0.07 | 76 | 1007.6 |
| 20260510020521 | 59 | 155 | 0.0 | 1.0 | 0.00 | 0.11 | 0.07 | 77 | 1007.3 |
| 20260510015719 | 60 | 160 | 0.0 | 2.0 | 0.00 | 0.11 | 0.07 | 75 | 1007.0 |
| 20260510013522 | 62 | 60 | 0.0 | 3.0 | 0.00 | 0.11 | 0.07 | 73 | 1006.8 |
| 20260510012021 | 62 | 167 | 0.0 | 3.0 | 0.00 | 0.11 | 0.07 | 70 | 1006.6 |
| 20260510010522 | 64 | 221 | 0.0 | 3.0 | 0.00 | 0.11 | 0.07 | 67 | 1006.4 |
| 20260510005022 | 65 | 254 | 1.0 | 12.0 | 0.00 | 0.11 | 0.07 | 66 | 1006.4 |
| 20260510003522 | 65 | 211 | 1.0 | 8.0 | 0.00 | 0.11 | 0.07 | 66 | 1006.0 |
| 20260510002021 | 65 | 212 | 1.0 | 6.0 | 0.00 | 0.11 | 0.07 | 66 | 1005.8 |
| 20260510000520 | 65 | 132 | 1.0 | 7.0 | 0.00 | 0.11 | 0.07 | 64 | 1005.7 |
| 20260509235019 | 66 | 174 | 1.0 | 10.0 | 0.00 | 0.11 | 0.07 | 62 | 1005.6 |
| 20260509233519 | 67 | 207 | 2.0 | 11.0 | 0.00 | 0.12 | 0.07 | 60 | 1005.5 |
| 20260509232020 | 69 | 176 | 2.0 | 12.0 | 0.00 | 0.12 | 0.07 | 58 | 1005.4 |
| 20260509230519 | 68 | 231 | 3.0 | 11.0 | 0.00 | 0.12 | 0.07 | 57 | 1005.5 |
| 20260509225019 | 70 | 313 | 3.0 | 12.0 | 0.00 | 0.12 | 0.07 | 56 | 1005.3 |
| 20260509224210 | 70 | 254 | 4.0 | 11.0 | 0.00 | 0.12 | 0.07 | 56 | 1005.1 |
| 20260509222019 | 70 | 319 | 4.0 | 14.0 | 0.00 | 0.12 | 0.07 | 57 | 1005.1 |
| 20260509220519 | 71 | 352 | 3.0 | 14.0 | 0.00 | 0.12 | 0.07 | 58 | 1005.1 |
| 20260509215020 | 71 | 101 | 2.0 | 10.0 | 0.00 | 0.12 | 0.07 | 60 | 1005.1 |
| 20260509213519 | 70 | 184 | 4.0 | 13.0 | 0.00 | 0.12 | 0.07 | 61 | 1005.3 |
| 20260509212019 | 71 | 245 | 2.0 | 10.0 | 0.00 | 0.12 | 0.07 | 58 | 1005.4 |
| 20260509210519 | 71 | 262 | 2.0 | 11.0 | 0.00 | 0.12 | 0.07 | 59 | 1005.4 |
| 20260509205019 | 70 | 290 | 2.0 | 8.0 | 0.00 | 0.12 | 0.07 | 59 | 1005.5 |
| 20260509203519 | 70 | 226 | 3.0 | 11.0 | 0.00 | 0.12 | 0.07 | 62 | 1005.7 |
| 20260509202018 | 69 | 243 | 2.0 | 11.0 | 0.00 | 0.12 | 0.07 | 61 | 1005.9 |
| 20260509200519 | 69 | 155 | 4.0 | 12.0 | 0.00 | 0.12 | 0.07 | 62 | 1006.0 |
| 20260509195719 | 69 | 70 | 3.0 | 10.0 | 0.00 | 0.12 | 0.07 | 62 | 1006.1 |
| 20260509193519 | 68 | 245 | 3.0 | 8.0 | 0.00 | 0.12 | 0.07 | 64 | 1006.2 |